Weather History for Nyiregyhaza, Hungary

Change the Weather History Date:

Wednesday, January 22, 2014

  Actual Average Record
Temperature  
Mean Temperature 30 °F -  
Max Temperature 34 °F - - ()
Min Temperature 24 °F - - ()
Degree Days  
Heating Degree Days 36    
Moisture  
Dew Point 26 °F    
Average Humidity 76    
Maximum Humidity 94    
Minimum Humidity 57    
Precipitation  
Precipitation 0.12 in - - ()
Sea Level Pressure  
Sea Level Pressure 29.84 in    
Wind  
Wind Speed 9 mph ()    
Max Wind Speed 16 mph    
Max Gust Speed -    
T = Trace of Precipitation, MM = Missing Value Source: Averaged Metar Reports

Daily Weather History Graph

Daily Weather History Graph

Search for Another Location

Airport:

Trip Planner

Search our weather history database for the weather conditions in past years. The results will help you decide how hot, cold, wet, or windy it might be!

Date:

Astronomy

Jan. 22, 2014 Rise Set
Actual Time 7:12 AM CET 4:17 PM CET
Civil Twilight 6:38 AM CET 4:51 PM CET
Nautical Twilight 6:00 AM CET 5:29 PM CET
Astronomical Twilight 5:23 AM CET 6:06 PM CET
Moon 11:03 PM CET (1/22) 9:34 AM CET (1/22)
Length of Visible Light 10h 13m
Length of Day
9h 04m
Waning Gibbous, 68% of the Moon is Illuminated
Jan 22
Waning Gibbous
Jan 24
Last Quarter
Jan 30
New
Feb 6
First Quarter
Feb 15
Full

Hourly Weather History & Observations

Time (CET) Temp. Dew Point Humidity Pressure Visibility Wind Dir Wind Speed Gust Speed Precip Events Conditions
12:00 AM 39 °F 38 °F 94% 29.71 in - North 6.7 mph - -  
1:00 AM 37 °F 36 °F 93% 29.72 in - North 8.9 mph - -  
2:00 AM 36 °F 34 °F 87% 29.73 in - North 8.9 mph - -  
3:00 AM 35 °F 32 °F 85% 29.73 in - North 8.9 mph - -  
4:00 AM 34 °F 31 °F 83% 29.74 in - North 8.9 mph - -  
5:00 AM 33 °F 29 °F 82% 29.75 in - North 11.2 mph - -  
6:00 AM 32 °F 28 °F 79% 29.75 in - North 11.2 mph - -  
7:00 AM 32 °F 28 °F 78% 29.77 in - North 13.4 mph - -  
8:00 AM 32 °F 26 °F 72% 29.78 in - North 13.4 mph - -  
9:00 AM 32 °F 26 °F 71% 29.80 in - North 13.4 mph - -  
10:00 AM 33 °F 26 °F 66% 29.82 in - North 15.7 mph - -  
11:00 AM 33 °F 26 °F 67% 29.83 in - North 11.2 mph - -  
12:00 PM 34 °F 26 °F 61% 29.83 in - North 13.4 mph - -  
1:00 PM 34 °F 24 °F 57% 29.84 in - North 13.4 mph - -  
2:00 PM 33 °F 24 °F 60% 29.85 in - North 13.4 mph - -  
3:00 PM 32 °F 22 °F 57% 29.87 in - North 13.4 mph - -  
4:00 PM 31 °F 22 °F 58% 29.89 in - North 13.4 mph - -  
5:00 PM 30 °F 22 °F 62% 29.91 in - North 11.2 mph - -  
6:00 PM 28 °F 23 °F 76% 29.94 in - North 11.2 mph - -  
7:00 PM 27 °F 23 °F 80% 29.96 in - North 11.2 mph - -  
8:00 PM 26 °F 23 °F 85% 29.97 in - North 11.2 mph - -  
9:00 PM 25 °F 23 °F 89% 29.99 in - North 11.2 mph - -  
10:00 PM 25 °F 22 °F 86% 29.99 in - North 8.9 mph - -  
11:00 PM 24 °F 22 °F 89% 30.00 in - North 8.9 mph - -